Maple Lake, MN

4:02 AM CDT on March 24, 2017 (GMT -0500)
Maple Lake Municipal

Weather History for KMGG - October, 2012

Change the Weather History Date:

Sunday, October 7, 2012

  Actual Average (KSTC) Record (KSTC)
Temperature  
Mean Temperature 38 °F -  
Max Temperature 53 °F 59 °F 86 °F (2003)
Min Temperature 24 °F 35 °F 19 °F (1976)
Degree Days  
Heating Degree Days 26    
Moisture  
Dew Point 23 °F    
Average Humidity 57    
Maximum Humidity 94    
Minimum Humidity 26    
Precipitation  
Precipitation 0.00 in - - ()
Sea Level Pressure  
Sea Level Pressure 30.06 in    
Wind  
Wind Speed 5 mph (SW)    
Max Wind Speed 15 mph    
Max Gust Speed 24 mph    
Visibility 10 miles    
Events      
Averages and records for this station are not official NWS values.
T = Trace of Precipitation, MM = Missing Value Source: NWS Daily Summary

Daily Weather History Graph

Daily Weather History Graph

Search for Another Location

Airport or City:

Trip Planner

Search our weather history database for the weather conditions in past years. The results will help you decide how hot, cold, wet, or windy it might be!

Date:

Astronomy

Oct. 07, 2012 Rise Set
Actual Time 7:22 AM CDT 6:44 PM CDT
Civil Twilight 6:52 AM CDT 7:13 PM CDT
Nautical Twilight 6:18 AM CDT 7:47 PM CDT
Astronomical Twilight 5:44 AM CDT 8:21 PM CDT
Moon 11:45 PM CDT (10/7) 2:11 PM CDT (10/7)
Length of Visible Light 12h 20m
Length of Day
11h 21m
Waning Gibbous, 56% of the Moon is Illuminated
Oct 7
Waning Gibbous
Oct 8
Last Quarter
Oct 15
New
Oct 21
First Quarter
Oct 29
Full

Hourly Weather History & Observations

Time (CDT) Temp. Windchill Dew Point Humidity Pressure Visibility Wind Dir Wind Speed Gust Speed Precip Events Conditions
12:14 AM 27.7 °F 23.8 °F 23.0 °F 83% 30.23 in 10.0 mi West 3.5 mph - N/A   Clear
12:34 AM 30.7 °F 26.0 °F 23.5 °F 75% 30.23 in 10.0 mi West 4.6 mph - N/A   Clear
12:54 AM 30.0 °F 26.5 °F 23.5 °F 77% 30.22 in 10.0 mi West 3.5 mph - N/A   Clear
1:14 AM 28.2 °F 24.4 °F 23.5 °F 83% 30.22 in 10.0 mi West 3.5 mph - N/A   Clear
1:34 AM 29.1 °F - 23.7 °F 80% 30.22 in 10.0 mi Calm Calm - N/A   Clear
1:54 AM 26.4 °F 22.4 °F 23.2 °F 88% 30.22 in 10.0 mi WSW 3.5 mph - N/A   Clear
2:14 AM 26.4 °F - 23.9 °F 90% 30.21 in 10.0 mi Calm Calm - N/A   Clear
2:34 AM 27.1 °F - 24.8 °F 91% 30.21 in 10.0 mi Calm Calm - N/A   Clear
2:54 AM 26.2 °F - 23.9 °F 91% 30.20 in 10.0 mi Calm Calm - N/A   Clear
3:14 AM 24.4 °F - 22.8 °F 94% 30.19 in 10.0 mi Calm Calm - N/A   Clear
3:54 AM 28.0 °F - 24.6 °F 87% 30.19 in 10.0 mi Calm Calm - N/A   Clear
4:14 AM 25.7 °F 20.1 °F 23.7 °F 92% 30.18 in 10.0 mi WSW 4.6 mph - N/A   Clear
4:34 AM 28.4 °F 22.2 °F 24.8 °F 86% 30.18 in 10.0 mi WSW 5.8 mph - N/A   Clear
4:54 AM 28.4 °F 22.2 °F 24.4 °F 85% 30.18 in 10.0 mi WSW 5.8 mph - N/A   Clear
5:14 AM 28.4 °F 23.3 °F 23.9 °F 83% 30.17 in 10.0 mi WSW 4.6 mph - N/A   Clear
5:34 AM 28.0 °F 22.8 °F 23.9 °F 84% 30.17 in 10.0 mi SW 4.6 mph - N/A   Clear
5:54 AM 27.9 °F 21.5 °F 23.5 °F 84% 30.17 in 10.0 mi WSW 5.8 mph - N/A   Clear
6:14 AM 28.4 °F 23.3 °F 24.3 °F 84% 30.16 in 10.0 mi WSW 4.6 mph - N/A   Clear
6:34 AM 27.7 °F - 23.9 °F 86% 30.16 in 10.0 mi Calm Calm - N/A   Clear
6:54 AM 27.5 °F 23.6 °F 23.7 °F 86% 30.15 in 10.0 mi SSW 3.5 mph - N/A   Clear
7:14 AM 26.6 °F - 23.0 °F 86% 30.15 in 10.0 mi Calm Calm - N/A   Clear
7:34 AM 26.6 °F 21.2 °F 23.2 °F 87% 30.15 in 10.0 mi SSW 4.6 mph - N/A   Clear
7:54 AM 27.9 °F 22.6 °F 23.4 °F 83% 30.14 in 10.0 mi SW 4.6 mph - N/A   Clear
8:14 AM 28.4 °F 24.6 °F 23.5 °F 82% 30.14 in 10.0 mi SSW 3.5 mph - N/A   Clear
8:34 AM 29.8 °F 24.9 °F 24.3 °F 80% 30.14 in 10.0 mi SSW 4.6 mph - N/A   Clear
8:54 AM 31.8 °F 24.6 °F 25.7 °F 78% 30.14 in 10.0 mi SW 8.1 mph - N/A   Clear
9:14 AM 32.9 °F 25.9 °F 25.5 °F 74% 30.14 in 10.0 mi SW 8.1 mph - N/A   Clear
9:34 AM 35.4 °F 29.7 °F 25.9 °F 68% 30.13 in 10.0 mi SW 6.9 mph - N/A   Clear
9:54 AM 37.0 °F 32.4 °F 25.5 °F 63% 30.13 in 10.0 mi SW 5.8 mph - N/A   Clear
10:14 AM 38.5 °F 32.1 °F 24.6 °F 58% 30.13 in 10.0 mi WSW 9.2 mph - N/A   Clear
10:34 AM 39.7 °F 34.3 °F 24.4 °F 54% 30.12 in 10.0 mi SW 8.1 mph - N/A   Clear
10:54 AM 42.4 °F 37.0 °F 23.9 °F 48% 30.11 in 10.0 mi SW 9.2 mph 20.7 mph N/A   Clear
11:14 AM 44.4 °F 38.6 °F 24.1 °F 45% 30.11 in 10.0 mi SW 11.5 mph - N/A   Clear
11:34 AM 44.6 °F 39.2 °F 23.5 °F 44% 30.10 in 10.0 mi SW 10.4 mph - N/A   Clear
11:54 AM 45.3 °F 40.1 °F 23.4 °F 42% 30.09 in 10.0 mi SW 10.4 mph 17.3 mph N/A   Clear
12:14 PM 47.5 °F - 23.7 °F 39% 30.09 in 10.0 mi SW 12.7 mph 20.7 mph N/A   Clear
12:34 PM 47.5 °F - 23.0 °F 38% 30.08 in 10.0 mi SW 13.8 mph 24.2 mph N/A   Clear
12:54 PM 49.3 °F - 23.4 °F 36% 30.07 in 10.0 mi SW 13.8 mph 20.7 mph N/A   Clear
1:34 PM 50.9 °F - 23.7 °F 35% 30.05 in 10.0 mi SSW 11.5 mph 18.4 mph N/A   Clear
1:53 PM 50.2 °F - 23.0 °F 35% 30.03 in 10.0 mi SSW 9.2 mph 16.1 mph N/A   Clear
2:14 PM 51.6 °F - 22.5 °F 32% 30.02 in 10.0 mi SSW 12.7 mph 18.4 mph N/A   Clear
2:34 PM 51.4 °F - 20.8 °F 30% 30.01 in 10.0 mi SW 11.5 mph 17.3 mph N/A   Clear
2:54 PM 52.5 °F - 21.2 °F 29% 30.00 in 10.0 mi SW 9.2 mph 21.9 mph N/A   Clear
3:14 PM 52.0 °F - 20.1 °F 29% 29.99 in 10.0 mi SW 11.5 mph 17.3 mph N/A   Clear
3:34 PM 52.9 °F - 19.6 °F 27% 29.98 in 10.0 mi SW 15.0 mph 19.6 mph N/A   Clear
3:54 PM 50.7 °F - 18.5 °F 28% 29.97 in 10.0 mi SW 8.1 mph 16.1 mph N/A   Clear
4:14 PM 52.5 °F - 19.0 °F 27% 29.96 in 10.0 mi WSW 8.1 mph - N/A   Clear
4:34 PM 53.4 °F - 19.2 °F 26% 29.95 in 10.0 mi SSW 8.1 mph - N/A   Clear
4:54 PM 52.5 °F - 19.0 °F 27% 29.95 in 10.0 mi SSW 3.5 mph - N/A   Clear
5:14 PM 52.0 °F - 19.6 °F 28% 29.94 in 10.0 mi SW 6.9 mph - N/A   Clear
5:34 PM 52.9 °F - 18.9 °F 26% 29.93 in 10.0 mi SW 4.6 mph - N/A   Scattered Clouds
5:54 PM 52.5 °F - 19.2 °F 27% 29.93 in 10.0 mi SW 8.1 mph - N/A   Scattered Clouds
6:14 PM 51.3 °F - 20.5 °F 30% 29.92 in 10.0 mi SW 6.9 mph - N/A   Scattered Clouds
6:34 PM 49.3 °F - 21.0 °F 33% 29.92 in 10.0 mi SSW 3.5 mph - N/A   Scattered Clouds
6:54 PM 48.9 °F - 20.3 °F 32% 29.91 in 10.0 mi Calm Calm - N/A   Mostly Cloudy
7:14 PM 47.8 °F - 21.0 °F 35% 29.91 in 10.0 mi Calm Calm - N/A   Overcast
7:34 PM 46.2 °F 45.0 °F 21.2 °F 37% 29.91 in 10.0 mi SSE 3.5 mph - N/A   Overcast
7:54 PM 44.6 °F - 20.8 °F 39% 29.91 in 10.0 mi Calm Calm - N/A   Scattered Clouds
8:14 PM 43.3 °F 41.7 °F 20.3 °F 40% 29.91 in 10.0 mi South 3.5 mph - N/A   Clear
8:34 PM 43.7 °F 42.1 °F 20.3 °F 39% 29.90 in 10.0 mi SSE 3.5 mph - N/A   Clear
8:54 PM 41.9 °F 40.0 °F 21.0 °F 43% 29.90 in 10.0 mi SSE 3.5 mph - N/A   Clear
9:13 PM 42.4 °F 40.7 °F 21.0 °F 43% 29.90 in 10.0 mi South 3.5 mph - N/A   Clear
9:34 PM 41.9 °F 40.0 °F 21.0 °F 43% 29.90 in 10.0 mi SSE 3.5 mph - N/A   Clear
9:54 PM 41.0 °F 39.0 °F 21.2 °F 45% 29.90 in 10.0 mi South 3.5 mph - N/A   Clear
10:14 PM 40.3 °F 38.2 °F 21.6 °F 47% 29.90 in 10.0 mi SSE 3.5 mph - N/A   Clear
10:34 PM 39.7 °F 36.5 °F 21.7 °F 49% 29.89 in 10.0 mi SSE 4.6 mph - N/A   Clear
10:54 PM 39.4 °F 36.1 °F 21.7 °F 49% 29.88 in 10.0 mi SSE 4.6 mph - N/A   Clear
11:14 PM 38.5 °F 34.1 °F 21.9 °F 51% 29.87 in 10.0 mi SSE 5.8 mph - N/A   Clear
11:34 PM 38.3 °F 34.8 °F 22.1 °F 52% 29.87 in 10.0 mi SSE 4.6 mph - N/A   Clear
11:54 PM 37.9 °F 33.5 °F 22.5 °F 54% 29.86 in 10.0 mi SSE 5.8 mph - N/A   Clear